sat.trackr.live / text

‹ back to catalog

2024-205A

NORAD 61894 · 2024-205A

PAYLOAD ACTIVE UNKNOWN

§ Identity

Operator
Country
PRC
Launch date
2024-11-11
Launch site
JSC
Launch vehicle
Mass (kg)
RCS (m²)

External: N2YO · Heavens-Above · Gunter

§ Orbital elements

Epoch: 2026-09-22T21:32:53.592000Z

Period
95.18 min
Inclination
97.4048°
Eccentricity
0.0016280
Mean motion
15.12967077 rev/d
Perigee alt
515.9 km
Apogee alt
538.4 km
Semi-major
6,905.3 km
B*
2.4185e-4
RAAN
333.1409°
Arg perigee
175.1892°
Mean anomaly
184.9499°
Rev number
10,297

§ Raw data

2024-205A1 61894U 24205A   26265.89784250  .00004214  00000+0  24185-3 0  99982 61894  97.4048 333.1409 0016280 175.1892 184.9499 15.12967077102973

JSON: /api/v1/satellites/61894 · /tle

For live sub-satellite position, see the globe view (requires WebGL).

§ Visibility from observer

Set your observer location to see the next 7 days of passes ≥ 10°. The values pass through the URL so the page stays shareable.

No JS? Fill the form by hand. The geolocation button needs JavaScript.